Thermal, CA

11:30 PM PDT on March 22, 2017 (GMT -0700)
Desert Resorts Regional

Weather History for KTRM - November, 2012

Change the Weather History Date:

Monday, November 26, 2012

  Actual Average Record
Temperature  
Mean Temperature 60 °F 56 °F  
Max Temperature 77 °F 74 °F 93 °F (1954)
Min Temperature 43 °F 39 °F 20 °F (2010)
Degree Days  
Heating Degree Days 5 9  
Month to date heating degree days 86 119  
Since 1 July heating degree days 86 130  
Cooling Degree Days 0 0  
Month to date cooling degree days 45 33  
Year to date cooling degree days 4274 3686  
Growing Degree Days 11 (Base 50)    
Moisture  
Dew Point 44 °F    
Average Humidity 55    
Maximum Humidity 76    
Minimum Humidity 33    
Precipitation  
Precipitation 0.00 in 0.01 in 0.31 in (2008)
Month to date precipitation T 0.19  
Year to date precipitation 2.40 2.81  
Since 1 July precipitation 2.04  
Snow  
Snow 0.00 in - - ()
Month to date snowfall 0.0  
Year to date snowfall 0.0  
Snow Depth 0.00 in    
Sea Level Pressure  
Sea Level Pressure 29.97 in    
Wind  
Wind Speed 3 mph (NW)    
Max Wind Speed 8 mph    
Max Gust Speed 12 mph    
Visibility 10 miles    
Events      
T = Trace of Precipitation, MM = Missing Value Source: NWS Daily Summary

Daily Weather History Graph

Daily Weather History Graph

Search for Another Location

Airport or City:

Trip Planner

Search our weather history database for the weather conditions in past years. The results will help you decide how hot, cold, wet, or windy it might be!

Date:

Astronomy

Nov. 26, 2012 Rise Set
Actual Time 6:27 AM PST 4:37 PM PST
Civil Twilight 6:00 AM PST 5:04 PM PST
Nautical Twilight 5:29 AM PST 5:34 PM PST
Astronomical Twilight 4:59 AM PST 6:04 PM PST
Moon 3:29 PM PST (11/26) 4:44 AM PST (11/26)
Length of Visible Light 11h 03m
Length of Day
10h 09m
Waxing Gibbous, 97% of the Moon is Illuminated
Nov 26
Waxing Gibbous
Nov 28
Full
Dec 6
Last Quarter
Dec 13
New
Dec 19
First Quarter

Hourly Weather History & Observations

Time (PST) Temp. Windchill Dew Point Humidity Pressure Visibility Wind Dir Wind Speed Gust Speed Precip Events Conditions
12:52 AM 52.0 °F - 37.9 °F 59% 29.88 in 10.0 mi North 3.5 mph - N/A   Clear
1:52 AM 46.9 °F - 36.0 °F 66% 29.89 in 10.0 mi West 4.6 mph - N/A   Clear
2:52 AM 45.0 °F 42.6 °F 37.0 °F 74% 29.90 in 10.0 mi SSE 4.6 mph - N/A   Clear
3:52 AM 45.0 °F - 36.0 °F 71% 29.90 in 10.0 mi Calm Calm - N/A   Clear
4:52 AM 46.0 °F 44.8 °F 36.0 °F 68% 29.92 in 10.0 mi NNW 3.5 mph - N/A   Clear
5:52 AM 45.0 °F 43.5 °F 36.0 °F 71% 29.95 in 10.0 mi WNW 3.5 mph - N/A   Clear
6:52 AM 46.0 °F - 35.1 °F 66% 29.96 in 10.0 mi Calm Calm - N/A   Clear
7:52 AM 55.0 °F - 41.0 °F 59% 29.99 in 6.0 mi Calm Calm - N/A   Haze
8:52 AM 64.9 °F - 45.0 °F 48% 30.01 in 10.0 mi Calm Calm - N/A   Clear
9:52 AM 69.1 °F - 50.0 °F 51% 30.01 in 8.0 mi Calm Calm - N/A   Clear
10:52 AM 73.0 °F - 50.0 °F 44% 30.01 in 8.0 mi Calm Calm - N/A   Clear
11:52 AM 75.0 °F - 54.0 °F 48% 29.99 in 10.0 mi Variable 6.9 mph - N/A   Clear
12:52 PM 75.9 °F - 54.0 °F 46% 29.96 in 10.0 mi SE 5.8 mph - N/A   Clear
1:52 PM 77.0 °F - 46.9 °F 34% 29.95 in 10.0 mi SSE 6.9 mph - N/A   Clear
2:52 PM 75.9 °F - 48.0 °F 37% 29.95 in 10.0 mi SSE 5.8 mph - N/A   Clear
3:52 PM 73.9 °F - 45.0 °F 35% 29.95 in 10.0 mi Calm Calm - N/A   Clear
4:52 PM 64.9 °F - 46.0 °F 50% 29.96 in 10.0 mi Calm Calm - N/A   Clear
5:52 PM 57.9 °F - 44.1 °F 60% 29.98 in 10.0 mi Calm Calm - N/A   Clear
6:52 PM 57.0 °F - 45.0 °F 64% 30.00 in 10.0 mi Calm Calm - N/A   Clear
7:52 PM 55.0 °F - 45.0 °F 69% 30.02 in 10.0 mi NW 3.5 mph - N/A   Clear
8:52 PM 53.1 °F - 44.1 °F 71% 30.04 in 10.0 mi Calm Calm - N/A   Clear
9:52 PM 52.0 °F - 44.1 °F 74% 30.05 in 10.0 mi NW 4.6 mph - N/A   Clear
10:52 PM 51.1 °F - 45.0 °F 80% 30.06 in 10.0 mi Calm Calm - N/A   Clear
11:52 PM 57.9 °F - 45.0 °F 62% 30.05 in 10.0 mi North 6.9 mph - N/A   Clear